Hourly Weather Suhaya

Today, 18 January, Monday

Time Temperature Precipitation Wind Pressure Humidity
00:00 -26°C° 0 mm 2 mps 739 mmHg 98%
01:00 -27°C° 0 mm 2 mps 740 mmHg 98%
02:00 -28°C° 0 mm 2 mps 741 mmHg 98%
03:00 -25°C° 0 mm 1 mps 742 mmHg 98%
04:00 -27°C° 0 mm 1 mps 742 mmHg 98%
05:00 -27°C° 0 mm 1 mps 742 mmHg 98%
06:00 -27°C° 0 mm 1 mps 743 mmHg 98%
07:00 -27°C° 0 mm 1 mps 743 mmHg 98%
08:00 -27°C° 0 mm 1 mps 744 mmHg 98%
09:00 -25°C° 0 mm 1 mps 744 mmHg 98%
10:00 -25°C° 0 mm 1 mps 745 mmHg 97%
11:00 -23°C° 0 mm 1 mps 745 mmHg 96%
12:00 -25°C° 0 mm 2 mps 745 mmHg 95%
13:00 -24°C° 0 mm 2 mps 745 mmHg 94%
14:00 -24°C° 0 mm 2 mps 745 mmHg 95%
15:00 -22°C° 0 mm 1 mps 746 mmHg 96%
16:00 -22°C° 0 mm 1 mps 746 mmHg 99%
17:00 -23°C° 0 mm 1 mps 746 mmHg 99%
18:00 -23°C° 0 mm 1 mps 746 mmHg 99%
19:00 -24°C° 0 mm 1 mps 746 mmHg 99%
20:00 -24°C° 0 mm 1 mps 746 mmHg 99%
21:00 -24°C° 0 mm 0 mps 746 mmHg 99%
22:00 -25°C° 0 mm 0 mps 746 mmHg 99%
23:00 -25°C° 0 mm 0 mps 747 mmHg 99%

Tomorrow, 19 January, Tuesday

Time Temperature Precipitation Wind Pressure Humidity
00:00 -25°C° 0 mm 0 mps 747 mmHg 99%
01:00 -25°C° 0 mm 0 mps 747 mmHg 99%
02:00 -25°C° 0 mm 0 mps 747 mmHg 98%
03:00 -25°C° 0 mm 0 mps 747 mmHg 98%
04:00 -25°C° 0 mm 0 mps 747 mmHg 97%
05:00 -25°C° 0 mm 0 mps 747 mmHg 97%
06:00 -25°C° 0 mm 0 mps 746 mmHg 97%
07:00 -25°C° 0 mm 0 mps 746 mmHg 97%
08:00 -24°C° 0 mm 0 mps 746 mmHg 97%
09:00 -23°C° 0 mm 0 mps 746 mmHg 96%
10:00 -22°C° 0 mm 0 mps 746 mmHg 95%
11:00 -20°C° 0 mm 1 mps 746 mmHg 93%
12:00 -18°C° 0 mm 1 mps 746 mmHg 91%
13:00 -17°C° 0 mm 1 mps 745 mmHg 88%
14:00 -16°C° 0 mm 1 mps 745 mmHg 88%
15:00 -16°C° 0 mm 1 mps 745 mmHg 88%
16:00 -18°C° 0 mm 2 mps 745 mmHg 87%
17:00 -17°C° 0 mm 2 mps 744 mmHg 85%
18:00 -17°C° 0 mm 2 mps 744 mmHg 84%
19:00 -16°C° 0 mm 2 mps 744 mmHg 82%
20:00 -16°C° 0 mm 3 mps 744 mmHg 85%
21:00 -16°C° 0 mm 3 mps 744 mmHg 89%
22:00 -15°C° 0 mm 3 mps 744 mmHg 92%
23:00 -15°C° 0.1 mm 3 mps 743 mmHg 92%

Day after tomorrow, 20 January, Wednesday

Time Temperature Precipitation Wind Pressure Humidity
00:00 -15°C° 0.1 mm 3 mps 743 mmHg 93%
01:00 -15°C° 0.1 mm 3 mps 742 mmHg 93%
02:00 -15°C° 0.2 mm 3 mps 742 mmHg 93%
03:00 -15°C° 0.2 mm 3 mps 742 mmHg 93%
04:00 -15°C° 0.2 mm 3 mps 742 mmHg 94%
05:00 -15°C° 0.2 mm 3 mps 741 mmHg 94%
06:00 -15°C° 0.2 mm 3 mps 741 mmHg 94%
07:00 -16°C° 0.2 mm 3 mps 741 mmHg 94%
08:00 -16°C° 0.1 mm 3 mps 741 mmHg 93%
09:00 -15°C° 0.1 mm 2 mps 741 mmHg 93%
10:00 -15°C° 0.1 mm 2 mps 741 mmHg 93%
11:00 -15°C° 0.1 mm 2 mps 740 mmHg 92%
12:00 -14°C° 0.1 mm 2 mps 740 mmHg 92%
13:00 -12°C° 0.1 mm 1 mps 740 mmHg 92%
14:00 -13°C° 0.1 mm 1 mps 740 mmHg 93%
15:00 -13°C° 0.1 mm 1 mps 739 mmHg 95%
16:00 -13°C° 0.1 mm 0 mps 739 mmHg 96%
17:00 -14°C° 0.1 mm 0 mps 739 mmHg 96%
18:00 -14°C° 0.1 mm 0 mps 739 mmHg 96%
19:00 -14°C° 0.1 mm 0 mps 739 mmHg 97%
20:00 -15°C° 0.1 mm 0 mps 739 mmHg 97%
21:00 -15°C° 0.1 mm 0 mps 739 mmHg 97%
22:00 -15°C° 0.1 mm 1 mps 739 mmHg 97%
23:00 -15°C° 0.1 mm 1 mps 739 mmHg 96%

21 January, Thursday

Time Temperature Precipitation Wind Pressure Humidity
00:00 -15°C° 0.1 mm 1 mps 739 mmHg 96%
01:00 -17°C° 0.1 mm 2 mps 739 mmHg 96%
02:00 -18°C° 0.1 mm 2 mps 739 mmHg 96%
03:00 -19°C° 0.1 mm 2 mps 739 mmHg 96%
04:00 -21°C° 0.1 mm 3 mps 739 mmHg 96%
05:00 -20°C° 0.1 mm 2 mps 740 mmHg 97%
06:00 -21°C° 0.1 mm 2 mps 740 mmHg 97%
07:00 -23°C° 0.1 mm 2 mps 740 mmHg 97%
08:00 -23°C° 0 mm 2 mps 740 mmHg 97%
09:00 -23°C° 0 mm 2 mps 740 mmHg 97%
10:00 -23°C° 0 mm 2 mps 740 mmHg 97%
11:00 -21°C° 0 mm 2 mps 741 mmHg 96%
12:00 -20°C° 0 mm 2 mps 741 mmHg 95%
13:00 -20°C° 0 mm 2 mps 741 mmHg 94%
14:00 -20°C° 0 mm 2 mps 741 mmHg 95%
15:00 -20°C° 0 mm 2 mps 741 mmHg 95%
16:00 -20°C° 0 mm 2 mps 741 mmHg 96%
17:00 -20°C° 0 mm 2 mps 741 mmHg 96%
18:00 -20°C° 0 mm 2 mps 741 mmHg 96%
19:00 -20°C° 0 mm 2 mps 741 mmHg 96%
20:00 -20°C° 0 mm 2 mps 741 mmHg 96%
21:00 -21°C° 0 mm 2 mps 741 mmHg 97%
22:00 -21°C° 0 mm 2 mps 741 mmHg 97%
23:00 -21°C° 0 mm 2 mps 741 mmHg 98%

22 January, Friday

Time Temperature Precipitation Wind Pressure Humidity
00:00 -23°C° 0 mm 2 mps 741 mmHg 98%
01:00 -23°C° 0 mm 2 mps 741 mmHg 98%
02:00 -20°C° 0 mm 1 mps 740 mmHg 98%
03:00 -20°C° 0 mm 1 mps 740 mmHg 98%
04:00 -20°C° 0 mm 1 mps 740 mmHg 98%
05:00 -20°C° 0.1 mm 1 mps 740 mmHg 98%
06:00 -19°C° 0.1 mm 1 mps 740 mmHg 98%
07:00 -19°C° 0.1 mm 1 mps 740 mmHg 98%
08:00 -18°C° 0.1 mm 1 mps 740 mmHg 97%
09:00 -17°C° 0.1 mm 1 mps 740 mmHg 96%
10:00 -17°C° 0.1 mm 1 mps 740 mmHg 95%
11:00 -18°C° 0.1 mm 2 mps 740 mmHg 94%
12:00 -18°C° 0.1 mm 2 mps 740 mmHg 93%
13:00 -17°C° 0.1 mm 2 mps 740 mmHg 92%
14:00 -18°C° 0.1 mm 2 mps 740 mmHg 93%
15:00 -20°C° 0.1 mm 2 mps 740 mmHg 95%
16:00 -23°C° 0.1 mm 3 mps 741 mmHg 96%
17:00 -24°C° 0.1 mm 3 mps 741 mmHg 96%
18:00 -26°C° 0.1 mm 3 mps 742 mmHg 96%
19:00 -27°C° 0.1 mm 3 mps 742 mmHg 96%
20:00 -29°C° 0 mm 3 mps 743 mmHg 95%
21:00 -30°C° 0 mm 3 mps 743 mmHg 94%
22:00 -31°C° 0 mm 3 mps 744 mmHg 93%
23:00 -32°C° 0 mm 3 mps 745 mmHg 93%

23 January, Saturday

Time Temperature Precipitation Wind Pressure Humidity
00:00 -32°C° 0 mm 3 mps 745 mmHg 93%
01:00 -33°C° 0 mm 3 mps 746 mmHg 93%
02:00 -34°C° 0 mm 3 mps 747 mmHg 93%
03:00 -34°C° 0 mm 3 mps 747 mmHg 93%
04:00 -35°C° 0 mm 3 mps 748 mmHg 93%
05:00 -35°C° 0 mm 3 mps 749 mmHg 93%
06:00 -35°C° 0 mm 3 mps 749 mmHg 92%
07:00 -36°C° 0 mm 3 mps 750 mmHg 92%
08:00 -35°C° 0 mm 3 mps 750 mmHg 91%
09:00 -35°C° 0 mm 3 mps 750 mmHg 91%
10:00 -34°C° 0 mm 3 mps 751 mmHg 91%
11:00 -33°C° 0 mm 3 mps 751 mmHg 91%
12:00 -30°C° 0 mm 2 mps 751 mmHg 91%
13:00 -29°C° 0 mm 2 mps 751 mmHg 91%
14:00 -28°C° 0 mm 2 mps 751 mmHg 91%
15:00 -30°C° 0 mm 3 mps 751 mmHg 91%
16:00 -30°C° 0 mm 3 mps 752 mmHg 91%
17:00 -30°C° 0 mm 3 mps 752 mmHg 91%
18:00 -30°C° 0 mm 3 mps 752 mmHg 91%
19:00 -30°C° 0 mm 3 mps 752 mmHg 90%
20:00 -30°C° 0 mm 3 mps 752 mmHg 90%
21:00 -32°C° 0 mm 4 mps 752 mmHg 90%
22:00 -32°C° 0 mm 4 mps 752 mmHg 90%
23:00 -32°C° 0 mm 4 mps 753 mmHg 90%
Show more